NGN42P EDDH-EDDK

Flight info

Callsign NGN42P
Flight time 0h 42m
Altitude 28000
Route IDEKO7G IDEKO N850 WRB P12 ESADU T858 KOPAG KOPAG1D
Aircraft A320/M-SDE3FGHIRWY/LB1

Departure

Time 2026-05-06 18:52
Airport Hamburg Helmut Schmidt Airport (EDDH)

Arrival

Time 2026-05-06 19:35
Airport Cologne Bonn Airport (EDDK)
Time Latitude Longitude Altitude Speed Heading
2026-05-06 18:09 53.63121 10.00059 49 ft 0 kts 140°
2026-05-06 18:41 53.63122 10.00058 48 ft 2 kts 140°
2026-05-06 18:41 53.63141 10.00035 48 ft 4 kts 154°
2026-05-06 18:41 53.63163 10.00023 47 ft 4 kts 188°
2026-05-06 18:42 53.63179 10.00033 46 ft 0 kts 231°
2026-05-06 18:45 53.63160 9.99993 47 ft 9 kts 231°
2026-05-06 18:45 53.63113 9.99909 48 ft 10 kts 204°
2026-05-06 18:45 53.63033 9.99926 48 ft 13 kts 157°
2026-05-06 18:46 53.62962 9.99986 47 ft 10 kts 153°
2026-05-06 18:46 53.62904 9.99935 48 ft 12 kts 240°
2026-05-06 18:46 53.62896 9.99910 48 ft 0 kts 242°
2026-05-06 18:50 53.62895 9.99910 48 ft 1 kts 242°
2026-05-06 18:50 53.62873 9.99835 44 ft 13 kts 244°
2026-05-06 18:50 53.62902 9.99714 45 ft 8 kts 331°
2026-05-06 18:50 53.62910 9.99708 45 ft 0 kts 332°
2026-05-06 18:51 53.62947 9.99675 45 ft 25 kts 332°
2026-05-06 18:51 53.63333 9.99345 47 ft 96 kts 333°
2026-05-06 18:52 53.64100 9.98706 54 ft 147 kts 340°
2026-05-06 18:52 53.65042 9.97837 468 ft 157 kts 333°
2026-05-06 18:52 53.66011 9.96958 1086 ft 159 kts 338°
2026-05-06 18:52 53.67009 9.96141 1701 ft 164 kts 340°
2026-05-06 18:53 53.68118 9.95273 1982 ft 188 kts 339°
2026-05-06 18:53 53.69355 9.94240 2341 ft 209 kts 337°
2026-05-06 18:53 53.70651 9.92992 2924 ft 219 kts 327°
2026-05-06 18:53 53.71573 9.90881 3597 ft 236 kts 290°
2026-05-06 18:54 53.71654 9.87957 4042 ft 264 kts 261°
2026-05-06 18:54 53.71151 9.84883 4718 ft 279 kts 251°
2026-05-06 18:54 53.70431 9.81809 4951 ft 282 kts 247°
2026-05-06 18:54 53.69666 9.78771 5001 ft 280 kts 247°
2026-05-06 18:55 53.68928 9.75729 5046 ft 282 kts 249°
2026-05-06 18:55 53.68232 9.72646 5871 ft 284 kts 250°
2026-05-06 18:55 53.67554 9.69467 6918 ft 284 kts 252°
2026-05-06 18:55 53.66917 9.66353 7852 ft 286 kts 252°
2026-05-06 18:56 53.66254 9.63162 8590 ft 292 kts 247°
2026-05-06 18:56 53.65144 9.60297 8988 ft 296 kts 225°
2026-05-06 18:56 53.63465 9.58194 9684 ft 299 kts 207°
2026-05-06 18:56 53.61518 9.57163 9850 ft 298 kts 187°
2026-05-06 18:57 53.59345 9.56744 9893 ft 324 kts 186°
2026-05-06 18:57 53.57065 9.56314 9909 ft 335 kts 186°
2026-05-06 18:57 53.54751 9.55873 10545 ft 340 kts 186°
2026-05-06 18:57 53.52405 9.55418 11378 ft 340 kts 186°
2026-05-06 18:58 53.50045 9.54952 12164 ft 343 kts 187°
2026-05-06 18:58 53.47670 9.54479 12947 ft 345 kts 187°
2026-05-06 18:58 53.45276 9.54004 13714 ft 348 kts 187°
2026-05-06 18:58 53.42863 9.53525 14396 ft 350 kts 187°
2026-05-06 18:59 53.40433 9.53045 15067 ft 353 kts 187°
2026-05-06 18:59 53.37983 9.52565 15740 ft 355 kts 188°
2026-05-06 18:59 53.35520 9.52083 16426 ft 358 kts 188°
2026-05-06 18:59 53.33043 9.51600 17089 ft 360 kts 188°
2026-05-06 19:00 53.30542 9.51110 17750 ft 363 kts 188°
2026-05-06 19:00 53.28017 9.50610 18384 ft 367 kts 188°
2026-05-06 19:00 53.25453 9.50107 18973 ft 370 kts 188°
2026-05-06 19:00 53.23768 9.49779 19362 ft 372 kts 188°
2026-05-06 19:01 53.20311 9.49109 19821 ft 375 kts 188°
2026-05-06 19:01 53.17715 9.48606 19916 ft 377 kts 188°
2026-05-06 19:01 53.15099 9.48098 20516 ft 379 kts 188°
2026-05-06 19:01 53.12468 9.47582 21129 ft 382 kts 188°
2026-05-06 19:02 53.09821 9.47062 21701 ft 385 kts 188°
2026-05-06 19:02 53.07147 9.46541 22257 ft 388 kts 188°
2026-05-06 19:02 53.04453 9.46018 22820 ft 392 kts 188°
2026-05-06 19:02 53.01735 9.45493 23367 ft 395 kts 188°
2026-05-06 19:03 52.98988 9.44965 23837 ft 398 kts 188°
2026-05-06 19:03 52.96227 9.44410 24295 ft 401 kts 188°
2026-05-06 19:03 52.93489 9.43827 24740 ft 403 kts 189°
2026-05-06 19:03 52.90699 9.43219 25182 ft 406 kts 189°
2026-05-06 19:04 52.87889 9.42605 25627 ft 408 kts 189°
2026-05-06 19:04 52.85064 9.41989 26059 ft 411 kts 189°
2026-05-06 19:04 52.82222 9.41377 26487 ft 413 kts 188°
2026-05-06 19:04 52.79365 9.40768 26897 ft 416 kts 189°
2026-05-06 19:05 52.76484 9.40159 27304 ft 418 kts 188°
2026-05-06 19:05 52.73591 9.39550 27709 ft 420 kts 188°
2026-05-06 19:05 52.70691 9.38941 27844 ft 418 kts 188°
2026-05-06 19:05 52.67846 9.38344 27862 ft 407 kts 189°
2026-05-06 19:06 52.65050 9.37754 27862 ft 404 kts 189°
2026-05-06 19:06 52.62271 9.37160 27861 ft 402 kts 189°
2026-05-06 19:06 52.59499 9.36505 27864 ft 401 kts 190°
2026-05-06 19:06 52.56741 9.35783 27863 ft 401 kts 191°
2026-05-06 19:07 52.53987 9.35031 27865 ft 401 kts 191°
2026-05-06 19:07 52.52169 9.34531 27865 ft 401 kts 191°
2026-05-06 19:07 52.48487 9.33535 27865 ft 401 kts 191°
2026-05-06 19:07 52.45736 9.32802 27863 ft 401 kts 191°
2026-05-06 19:08 52.42982 9.32077 27864 ft 401 kts 191°
2026-05-06 19:08 52.40229 9.31356 27861 ft 401 kts 191°
2026-05-06 19:08 52.37508 9.30651 27860 ft 401 kts 191°
2026-05-06 19:08 52.34754 9.29943 27860 ft 401 kts 191°
2026-05-06 19:09 52.32000 9.29231 27859 ft 401 kts 191°
2026-05-06 19:09 52.29243 9.28512 27856 ft 401 kts 191°
2026-05-06 19:09 52.26487 9.27792 27861 ft 401 kts 191°
2026-05-06 19:09 52.23733 9.27072 27859 ft 401 kts 191°
2026-05-06 19:10 52.21867 9.26615 27861 ft 401 kts 189°
2026-05-06 19:10 52.20035 9.26221 27859 ft 401 kts 188°
2026-05-06 19:10 52.18904 9.26001 27859 ft 401 kts 188°
2026-05-06 19:10 52.16127 9.25514 27858 ft 402 kts 187°
2026-05-06 19:11 52.13401 9.25069 27854 ft 401 kts 187°
2026-05-06 19:11 52.10620 9.24618 27853 ft 401 kts 187°
2026-05-06 19:11 52.07840 9.24153 27851 ft 401 kts 187°
2026-05-06 19:11 52.05058 9.23667 27847 ft 401 kts 188°
2026-05-06 19:12 52.02293 9.23072 27843 ft 401 kts 190°
2026-05-06 19:12 51.99539 9.22364 27842 ft 401 kts 191°
2026-05-06 19:12 51.96790 9.21596 27840 ft 401 kts 191°
2026-05-06 19:12 51.94045 9.20815 27840 ft 401 kts 191°
2026-05-06 19:13 51.91302 9.20050 27839 ft 400 kts 191°
2026-05-06 19:13 51.88550 9.19298 27838 ft 401 kts 191°
2026-05-06 19:13 51.85795 9.18605 27843 ft 401 kts 189°
2026-05-06 19:13 51.83034 9.17987 27841 ft 401 kts 189°
2026-05-06 19:14 51.80269 9.17409 27843 ft 400 kts 188°
2026-05-06 19:14 51.77505 9.16841 27843 ft 400 kts 188°
2026-05-06 19:14 51.74743 9.16270 27844 ft 400 kts 188°
2026-05-06 19:14 51.71989 9.15641 27846 ft 399 kts 194°
2026-05-06 19:15 51.69398 9.14127 27849 ft 396 kts 210°
2026-05-06 19:15 51.67184 9.11452 27844 ft 404 kts 227°
2026-05-06 19:15 51.65469 9.07838 27847 ft 407 kts 236°
2026-05-06 19:15 51.63903 9.04078 27390 ft 402 kts 236°
2026-05-06 19:16 51.62355 9.00354 26875 ft 397 kts 236°
2026-05-06 19:16 51.60852 8.96740 26439 ft 392 kts 236°
2026-05-06 19:16 51.59343 8.93120 26004 ft 387 kts 236°
2026-05-06 19:16 51.57830 8.89492 25570 ft 384 kts 236°
2026-05-06 19:17 51.56346 8.85939 25150 ft 381 kts 236°
2026-05-06 19:17 51.54873 8.82416 24731 ft 379 kts 236°
2026-05-06 19:17 51.53428 8.78955 24325 ft 377 kts 236°
2026-05-06 19:17 51.51972 8.75473 23904 ft 372 kts 236°
2026-05-06 19:18 51.50545 8.72071 23464 ft 364 kts 236°
2026-05-06 19:18 51.49137 8.68717 22938 ft 361 kts 236°
2026-05-06 19:18 51.47739 8.65393 22423 ft 358 kts 236°
2026-05-06 19:18 51.46349 8.62098 21912 ft 356 kts 236°
2026-05-06 19:19 51.44967 8.58827 21410 ft 353 kts 236°
2026-05-06 19:19 51.43589 8.55564 20923 ft 353 kts 236°
2026-05-06 19:19 51.42216 8.52312 20435 ft 351 kts 236°
2026-05-06 19:19 51.40841 8.49063 19963 ft 356 kts 236°
2026-05-06 19:20 51.39435 8.45748 19493 ft 361 kts 236°
2026-05-06 19:20 51.38020 8.42423 19030 ft 360 kts 236°
2026-05-06 19:20 51.36615 8.39118 18582 ft 359 kts 236°
2026-05-06 19:20 51.35214 8.35830 18121 ft 357 kts 236°
2026-05-06 19:21 51.33818 8.32561 17610 ft 355 kts 236°
2026-05-06 19:21 51.32432 8.29319 17103 ft 352 kts 236°
2026-05-06 19:21 51.31050 8.26094 16603 ft 350 kts 236°
2026-05-06 19:21 51.29681 8.22896 16082 ft 348 kts 236°
2026-05-06 19:22 51.28321 8.19719 15573 ft 345 kts 236°
2026-05-06 19:22 51.26968 8.16564 15074 ft 343 kts 236°
2026-05-06 19:22 51.25625 8.13429 14583 ft 341 kts 236°
2026-05-06 19:22 51.24287 8.10303 14097 ft 339 kts 236°
2026-05-06 19:23 51.22955 8.07200 13609 ft 338 kts 236°
2026-05-06 19:23 51.21629 8.04127 13078 ft 336 kts 236°
2026-05-06 19:23 51.20304 8.01063 12552 ft 334 kts 236°
2026-05-06 19:23 51.18986 7.98022 12039 ft 329 kts 236°
2026-05-06 19:24 51.17732 7.95127 11856 ft 305 kts 236°
2026-05-06 19:24 51.16582 7.92470 11864 ft 278 kts 236°
2026-05-06 19:24 51.15513 7.90003 11603 ft 265 kts 237°
2026-05-06 19:24 51.14482 7.87621 11245 ft 257 kts 237°
2026-05-06 19:25 51.13486 7.85325 10895 ft 254 kts 237°
2026-05-06 19:25 51.12471 7.82992 10557 ft 258 kts 237°
2026-05-06 19:25 51.11444 7.80641 10220 ft 260 kts 237°
2026-05-06 19:25 51.10408 7.78268 9874 ft 262 kts 237°
2026-05-06 19:26 51.09367 7.75878 9514 ft 264 kts 237°
2026-05-06 19:26 51.08318 7.73468 9146 ft 266 kts 237°
2026-05-06 19:26 51.07264 7.71046 8775 ft 267 kts 237°
2026-05-06 19:26 51.06203 7.68610 8410 ft 269 kts 237°
2026-05-06 19:27 51.05135 7.66165 8051 ft 270 kts 237°
2026-05-06 19:27 51.04063 7.63715 7667 ft 271 kts 237°
2026-05-06 19:27 51.02979 7.61241 7268 ft 274 kts 237°
2026-05-06 19:27 51.01773 7.58974 6866 ft 266 kts 218°
2026-05-06 19:28 51.00131 7.57742 6476 ft 259 kts 197°
2026-05-06 19:28 50.98401 7.57040 6074 ft 254 kts 194°
2026-05-06 19:28 50.96702 7.56414 5649 ft 247 kts 196°
2026-05-06 19:28 50.95220 7.55221 5223 ft 236 kts 226°
2026-05-06 19:29 50.94409 7.53090 4904 ft 229 kts 259°
2026-05-06 19:29 50.94267 7.50592 4581 ft 227 kts 272°
2026-05-06 19:29 50.94278 7.48111 4319 ft 221 kts 273°
2026-05-06 19:29 50.94303 7.45747 4103 ft 208 kts 274°
2026-05-06 19:30 50.94323 7.43499 3902 ft 210 kts 274°
2026-05-06 19:30 50.94346 7.41161 3697 ft 207 kts 274°
2026-05-06 19:30 50.94259 7.38997 3550 ft 191 kts 254°
2026-05-06 19:30 50.93560 7.37287 3331 ft 181 kts 237°
2026-05-06 19:31 50.92988 7.35578 3125 ft 174 kts 249°
2026-05-06 19:31 50.92481 7.33850 2886 ft 172 kts 248°
2026-05-06 19:31 50.91468 7.30453 2422 ft 170 kts 248°
2026-05-06 19:32 50.90965 7.28782 2196 ft 164 kts 248°
2026-05-06 19:32 50.90498 7.27236 1965 ft 149 kts 248°
2026-05-06 19:32 50.90064 7.25793 1771 ft 143 kts 249°
2026-05-06 19:32 50.89639 7.24383 1569 ft 141 kts 249°
2026-05-06 19:33 50.89218 7.22986 1372 ft 140 kts 248°
2026-05-06 19:33 50.88804 7.21613 1171 ft 137 kts 248°
2026-05-06 19:33 50.88394 7.20254 976 ft 137 kts 248°
2026-05-06 19:33 50.87983 7.18894 787 ft 136 kts 247°
2026-05-06 19:34 50.87576 7.17547 600 ft 136 kts 246°
2026-05-06 19:34 50.87173 7.16197 418 ft 135 kts 248°
2026-05-06 19:34 50.86770 7.14883 275 ft 128 kts 246°
2026-05-06 19:34 50.86446 7.13805 255 ft 72 kts 244°
2026-05-06 19:35 50.86390 7.13461 252 ft 21 kts 294°
2026-05-06 19:35 50.86446 7.13362 251 ft 0 kts 317°
2026-05-06 19:37 50.86452 7.13354 250 ft 5 kts 317°
2026-05-06 19:37 50.86504 7.13277 249 ft 13 kts 317°
2026-05-06 19:37 50.86584 7.13166 248 ft 17 kts 319°
2026-05-06 19:37 50.86649 7.13069 245 ft 21 kts 317°
2026-05-06 19:38 50.86794 7.12861 241 ft 23 kts 318°
2026-05-06 19:38 50.86900 7.12706 237 ft 17 kts 317°
2026-05-06 19:38 50.86985 7.12582 237 ft 18 kts 317°
2026-05-06 19:38 50.87083 7.12441 232 ft 19 kts 318°
2026-05-06 19:39 50.87177 7.12309 232 ft 16 kts 322°
2026-05-06 19:39 50.87291 7.12302 232 ft 18 kts 14°
2026-05-06 19:39 50.87411 7.12367 232 ft 16 kts 18°
2026-05-06 19:39 50.87506 7.12405 232 ft 12 kts 349°
2026-05-06 19:40 50.87561 7.12301 235 ft 13 kts 297°
2026-05-06 19:40 50.87603 7.12179 232 ft 8 kts 298°
2026-05-06 19:40 50.87641 7.12121 232 ft 7 kts 348°
2026-05-06 19:40 50.87675 7.12168 232 ft 5 kts 51°
2026-05-06 19:41 50.87686 7.12190 232 ft 2 kts 52°
2026-05-06 19:41 50.87688 7.12195 232 ft 0 kts 52°